Location: El Abasto
(10.3790°N, 67.5897°W)
Time: 09:14:33
(UTC+00:00)

ATLAS 2AS CENTAUR RB - Pass Details

Date: 19 May 2024
Orbit: 274 x 22775 km, 12.6° (Epoch: 22 June)

Event Time Altitude Azimuth Distance (km) Brightness Sun altitude
Rises 19:51:01 0° 248° (WSW) 2,594 5.3 40.0°
Reaches altitude 10° 19:52:19 10° 244° (WSW) 2,028 4.9 39.7°
Maximum altitude 19:56:28 65° 160° (SSE) 1,349 3.6 38.7°
Drops below altitude 10° 20:19:23 10° 82° (E) 9,817 7.3 33.4°
Sets 20:43:51 0° 81° (E) 16,384 8.3 27.6°
